This demonstration page uses our WeatherBlox Daily Observations layout. Learn more.

39.92423, -83.80882

Hourly Observations for December 20, 2019

Temp ( °F °C ) Dew Point ( °F °C ) Humidity (%) Winds ( mph kmh ) Pressure ( in mb ) Visibility ( mi km ) Precip ( " mm )
12:56 am 00:56 Clear 22 -5.6 20 -6.7 92 92 Calm 30.45 1031 10 16.0934 0 0
1:56 am 01:56 Clear 20 -6.7 19 -7.2 96 96 Calm 30.47 1032 10 16.0934 0 0
2:56 am 02:56 Clear 20 -6.7 19 -7.2 96 96 Calm 30.49 1033 10 16.0934 0 0
3:56 am 03:56 Clear 18 -7.8 17 -8.3 96 96 S 3 6 30.5 1033 10 16.0934 0 0
4:56 am 04:56 Clear 17 -8.3 16 -8.9 95 95 Calm 30.52 1033 8 12.87472 0 0
5:56 am 05:56 Clear 15 -9.4 14 -10 95 95 Calm 30.53 1034 7 11.26538 0 0
6:56 am 06:56 Clear 15 -9.4 14 -10 95 95 Calm 30.54 1034 7 11.26538 0 0
7:56 am 07:56 Sunny with Mist and Fog 14 -10 14 -10 100 100 ESE 3 6 30.56 1035 5 8.0467 0 0
8:56 am 08:56 Sunny with Mist and Fog 16 -8.9 15 -9.4 96 96 ESE 3 6 30.56 1035 6 9.65604 0 0
9:56 am 09:56 Sunny 21 -6.1 20 -6.7 96 96 E 5 7 30.57 1035 7 11.26538 0 0
10:56 am 10:56 Sunny 30 -1.1 26 -3.3 85 85 ESE 3 6 30.56 1035 10 16.0934 0 0
11:56 am 11:56 Sunny 35 1.7 26 -3.3 70 70 SE 6 9 30.55 1034 10 16.0934 0 0
12:56 pm 12:56 Sunny 35 1.7 25 -3.9 67 67 SE 8 13 30.54 1034 10 16.0934 0 0
1:56 pm 13:56 Sunny 35 1.7 26 -3.3 70 70 SE 7 11 30.53 1034 10 16.0934 0 0
2:56 pm 14:56 Sunny 35 1.7 27 -2.8 72 72 SE 7 11 30.52 1034 10 16.0934 0 0
3:56 pm 15:56 Sunny 34 1.1 28 -2.2 79 79 ESE 7 11 30.54 1034 10 16.0934 0 0
4:56 pm 16:56 Sunny 32 0 29 -1.7 88 88 E 7 11 30.54 1034 8 12.87472 0 0
5:56 pm 17:56 Clear 30 -1.1 28 -2.2 92 92 E 5 7 30.54 1034 9 14.48406 0 0
6:56 pm 18:56 Clear 26 -3.3 25 -3.9 96 96 E 5 7 30.53 1034 8 12.87472 0 0
7:56 pm 19:56 Clear 28 -2.2 27 -2.8 96 96 ESE 5 7 30.55 1035 9 14.48406 0 0
8:56 pm 20:56 Clear 27 -2.8 26 -3.3 96 96 ESE 5 7 30.53 1034 9 14.48406 0 0
9:56 pm 21:56 Clear 27 -2.8 25 -3.9 92 92 SE 7 11 30.51 1033 10 16.0934 0 0
10:56 pm 22:56 Clear 28 -2.2 25 -3.9 88 88 SE 7 11 30.51 1033 10 16.0934 0 0
11:56 pm 23:56 Clear 30 -1.1 26 -3.3 85 85 S 5 7 30.5 1033 10 16.0934 0 0

Powered by AerisWeather